Regional Weather Roundup
Issued by NWS Glasgow, MT

Home | Current Version | Previous Version | Text Only | Print | Product List | Glossary On
Versions: 1 2 3 4 5 6 7 8 9 10 11 12 13 14 15 16 17 18 19 20 21 22 23 24 25 26 27 28 29 30 31 32 33 34 35 36 37 38 39 40 41 42 43 44 45 46 47 48 49
000
ASUS45 KGGW 210415
RWRGGW
HOURLY WEATHER ROUNDUP FOR NORTHEAST MONTANA
NATIONAL WEATHER SERVICE GLASGOW MONTANA
1000 PM MDT SAT SEP 20 2014

NOTE: "FAIR" INDICATES FEW OR NO CLOUDS BELOW 12,000 FEET WITH NO
SIGNIFICANT WEATHER AND/OR OBSTRUCTIONS TO VISISBILITY.

NORTHEAST MONTANA


CITY           SKY/WX    TMP DP  RH WIND       PRES   REMARKS
GLASGOW        CLEAR     52  36  54 W5        30.22R
PLENTYWOOD       N/A     50  35  56 NW7         N/A
WOLF POINT     CLEAR     49  37  63 W3        30.21R
JORDAN           N/A     47  40  76 W3        30.25R
WINNETT          N/A     47  43  86 NE2         N/A
SIDNEY         CLEAR     52  36  54 W10       30.21R
GLENDIVE       NOT AVBL
MALTA            N/A     52  40  63 SW3         N/A
SCOBEY           N/A     43  31  63 CALM      30.18R
OPHEIM           N/A     52  34  50 N7        30.08R

FORT PECK REPORTS


CITY           SKY/WX    TMP DP  RH WIND       PRES   REMARKS
FORT PECK        N/A     57  36  45 N7          N/A
THE PINES        N/A     59  33  37 NW5         N/A

SOUTHEAST MONTANA


CITY           SKY/WX    TMP DP  RH WIND       PRES   REMARKS
BILLINGS       CLEAR     60  43  53 N6        30.27R
MILES CITY     CLEAR     56  38  50 NW8       30.24R
BAKER          CLEAR     51  36  56 NW6       30.24R
LIVINGSTON     CLEAR     59  42  53 SE10      30.26S

CENTRAL MONTANA


CITY           SKY/WX    TMP DP  RH WIND       PRES   REMARKS
HAVRE          CLEAR     51  39  63 S3        30.24R
LEWISTOWN      CLEAR     52  44  74 E6        30.29S
GREAT FALLS    CLEAR     56  41  57 E9        30.26R
CUT BANK       CLEAR     59  41  51 SE3       30.27R
HELENA         CLEAR     63  41  44 W9        30.22R
BUTTE          CLEAR     58  38  47 S6        30.29R
BOZEMAN        CLEAR     50  42  74 N5        30.25R

WESTERN MONTANA


CITY           SKY/WX    TMP DP  RH WIND       PRES   REMARKS
MISSOULA       CLEAR     63  40  42 N3        30.15S
KALISPELL      NOT AVBL

NORTH DAKOTA


CITY           SKY/WX    TMP DP  RH WIND       PRES   REMARKS
WILLISTON      CLEAR     52  37  56 W9        30.17R
DICKINSON      CLEAR     46  35  65 W7        30.18R
MINOT          MOCLDY    57  40  52 W15       30.08R
BISMARCK       CLEAR     56  41  57 W9        30.12R

SOUTHERN SASKATCHEWAN


CITY           SKY/WX    TMP DP  RH WIND       PRES   REMARKS
REGINA         CLEAR     46  41  81 W10       30.13R
ESTEVAN        CLEAR     50  43  76 NW9       30.13
SWIFT CURRENT  CLEAR     48  36  61 W8        30.20R



USA.gov is the U.S. government's official web portal to all federal, state and local government web resources and services.